Time,TemperatureF,DewpointF,PressureIn,WindDirection,WindDirectionDegrees,WindSpeedMPH,WindSpeedGustMPH,Humidity,HourlyPrecipIn,Conditions,Clouds,dailyrainin,SoftwareType,DateUTC
2013-09-01 00:02:00,75.2,73.4,30.17,North,0,0.0,-999.9,94,-99.99,,,-99.99,,2013-09-01 04:02:00,
2013-09-01 00:08:00,75.2,73.4,30.17,North,0,0.0,-999.9,94,-99.99,,,-99.99,,2013-09-01 04:08:00,
2013-09-01 00:14:00,75.2,71.6,30.17,NNE,26,2.3,-999.9,89,-99.99,,,-99.99,,2013-09-01 04:14:00,
2013-09-01 00:20:00,75.2,71.6,30.17,NNE,26,2.3,-999.9,89,-99.99,,,-99.99,,2013-09-01 04:20:00,
2013-09-01 00:26:00,75.2,71.6,30.18,NNE,27,0.0,-999.9,89,-99.99,,,-99.99,,2013-09-01 04:26:00,
2013-09-01 00:32:00,75.2,71.6,30.17,North,0,0.0,-999.9,89,-99.99,,,-99.99,,2013-09-01 04:32:00,
2013-09-01 00:38:00,75.2,71.6,30.17,North,0,0.0,-999.9,89,-99.99,,,-99.99,,2013-09-01 04:38:00,
2013-09-01 00:44:00,75.2,71.6,30.17,North,0,0.0,-999.9,89,-99.99,,,-99.99,,2013-09-01 04:44:00,
2013-09-01 00:50:00,75.2,71.6,30.17,North,0,0.0,-999.9,89,-99.99,,,-99.99,,2013-09-01 04:50:00,
2013-09-01 00:56:00,75.2,73.4,30.17,North,0,0.0,-999.9,94,-99.99,,,-99.99,,2013-09-01 04:56:00,
2013-09-01 01:22:00,75.2,73.4,30.16,North,0,0.0,-999.9,94,-99.99,,,-99.99,,2013-09-01 05:22:00,
2013-09-01 01:28:00,75.2,73.4,30.16,North,0,0.0,-999.9,94,-99.99,,,-99.99,,2013-09-01 05:28:00,
2013-09-01 01:34:00,75.2,73.4,30.16,North,0,0.0,-999.9,94,-99.99,,,-99.99,,2013-09-01 05:34:00,
2013-09-01 01:40:00,75.2,73.4,30.16,North,0,0.0,-999.9,94,-99.99,,,-99.99,,2013-09-01 05:40:00,
2013-09-01 02:02:00,75.2,73.4,30.16,North,0,0.0,-999.9,94,-99.99,,,-99.99,,2013-09-01 06:02:00,
2013-09-01 02:08:00,75.2,73.4,30.16,North,0,0.0,-999.9,94,-99.99,,,-99.99,,2013-09-01 06:08:00,
2013-09-01 02:14:00,75.2,73.4,30.16,North,0,0.0,-999.9,94,-99.99,,,-99.99,,2013-09-01 06:14:00,
2013-09-01 02:20:00,75.2,73.4,30.16,North,0,0.0,-999.9,94,-99.99,,,-99.99,,2013-09-01 06:20:00,
2013-09-01 02:26:00,75.2,73.4,30.16,North,0,0.0,-999.9,94,-99.99,,,-99.99,,2013-09-01 06:26:00,
2013-09-01 02:32:00,75.2,73.4,30.16,North,0,0.0,-999.9,94,-99.99,,,-99.99,,2013-09-01 06:32:00,
2013-09-01 02:38:00,75.2,73.4,30.16,North,0,0.0,-999.9,94,-99.99,,,-99.99,,2013-09-01 06:38:00,
2013-09-01 02:44:00,75.2,73.4,30.16,North,0,0.0,-999.9,94,-99.99,,,-99.99,,2013-09-01 06:44:00,
2013-09-01 02:50:00,75.2,73.4,30.16,North,0,0.0,-999.9,94,-99.99,,,-99.99,,2013-09-01 06:50:00,
2013-09-01 02:56:00,75.2,73.4,30.15,North,0,0.0,-999.9,94,-99.99,,,-99.99,,2013-09-01 06:56:00,
2013-09-01 03:02:00,75.2,73.4,30.15,North,0,0.0,-999.9,94,-99.99,,,-99.99,,2013-09-01 07:02:00,
2013-09-01 03:08:00,75.2,73.4,30.15,North,0,0.0,-999.9,94,-99.99,,,-99.99,,2013-09-01 07:08:00,
2013-09-01 03:14:00,73.4,71.6,30.15,North,0,0.0,-999.9,94,-99.99,,,-99.99,,2013-09-01 07:14:00,
2013-09-01 03:20:00,73.4,71.6,30.15,North,0,0.0,-999.9,94,-99.99,,,-99.99,,2013-09-01 07:20:00,
2013-09-01 03:26:00,73.4,71.6,30.15,North,0,0.0,-999.9,94,-99.99,,,-99.99,,2013-09-01 07:26:00,
2013-09-01 03:32:00,73.4,71.6,30.15,North,0,0.0,-999.9,94,-99.99,,,-99.99,,2013-09-01 07:32:00,
2013-09-01 03:38:00,73.4,71.6,30.15,North,0,0.0,-999.9,94,-99.99,,,-99.99,,2013-09-01 07:38:00,
2013-09-01 03:44:00,73.4,71.6,30.15,North,0,0.0,-999.9,94,-99.99,,,-99.99,,2013-09-01 07:44:00,
2013-09-01 03:50:00,73.4,71.6,30.15,North,0,0.0,-999.9,94,-99.99,,,-99.99,,2013-09-01 07:50:00,
2013-09-01 03:56:00,73.4,71.6,30.15,North,0,0.0,-999.9,94,-99.99,,,-99.99,,2013-09-01 07:56:00,
2013-09-01 04:02:00,73.4,71.6,30.15,North,0,0.0,-999.9,94,-99.99,,,-99.99,,2013-09-01 08:02:00,
2013-09-01 04:08:00,73.4,71.6,30.15,North,0,0.0,-999.9,94,-99.99,,,-99.99,,2013-09-01 08:08:00,
2013-09-01 04:14:00,73.4,71.6,30.14,North,0,0.0,-999.9,94,-99.99,,,-99.99,,2013-09-01 08:14:00,
2013-09-01 04:20:00,73.4,71.6,30.14,North,0,0.0,-999.9,94,-99.99,,,-99.99,,2013-09-01 08:20:00,
2013-09-01 04:26:00,73.4,71.6,30.14,North,0,0.0,-999.9,94,-99.99,,,-99.99,,2013-09-01 08:26:00,
2013-09-01 04:32:00,73.4,71.6,30.14,North,0,0.0,-999.9,94,-99.99,,,-99.99,,2013-09-01 08:32:00,
2013-09-01 04:38:00,73.4,71.6,30.14,North,0,0.0,-999.9,94,-99.99,,,-99.99,,2013-09-01 08:38:00,
2013-09-01 04:44:00,73.4,71.6,30.15,North,0,0.0,-999.9,94,-99.99,,,-99.99,,2013-09-01 08:44:00,
2013-09-01 04:50:00,73.4,71.6,30.15,North,0,0.0,-999.9,94,-99.99,,,-99.99,,2013-09-01 08:50:00,
2013-09-01 04:56:00,73.4,71.6,30.16,North,0,0.0,-999.9,94,-99.99,,,-99.99,,2013-09-01 08:56:00,
2013-09-01 05:02:00,73.4,71.6,30.16,North,0,0.0,-999.9,94,-99.99,,,-99.99,,2013-09-01 09:02:00,
2013-09-01 05:08:00,73.4,71.6,30.16,North,0,0.0,-999.9,94,-99.99,,,-99.99,,2013-09-01 09:08:00,
2013-09-01 05:14:00,73.4,71.6,30.16,North,0,0.0,-999.9,94,-99.99,,,-99.99,,2013-09-01 09:14:00,
2013-09-01 05:20:00,73.4,71.6,30.16,North,0,0.0,-999.9,94,-99.99,,,-99.99,,2013-09-01 09:20:00,
2013-09-01 05:26:00,73.4,71.6,30.16,North,0,0.0,-999.9,94,-99.99,,,-99.99,,2013-09-01 09:26:00,
2013-09-01 05:32:00,73.4,71.6,30.17,SSE,162,4.6,-999.9,94,-99.99,,,-99.99,,2013-09-01 09:32:00,
2013-09-01 05:38:00,73.4,71.6,30.17,SSE,162,4.6,-999.9,94,-99.99,,,-99.99,,2013-09-01 09:38:00,
2013-09-01 05:44:00,73.4,71.6,30.16,North,0,0.0,-999.9,94,-99.99,,,-99.99,,2013-09-01 09:44:00,
2013-09-01 05:50:00,73.4,71.6,30.16,North,0,0.0,-999.9,94,-99.99,,,-99.99,,2013-09-01 09:50:00,
2013-09-01 05:56:00,73.4,71.6,30.17,North,0,0.0,-999.9,94,-99.99,,,-99.99,,2013-09-01 09:56:00,
2013-09-01 06:02:00,73.4,71.6,30.17,North,0,0.0,-999.9,94,-99.99,,,-99.99,,2013-09-01 10:02:00,
2013-09-01 06:08:00,73.4,71.6,30.17,North,0,0.0,-999.9,94,-99.99,,,-99.99,,2013-09-01 10:08:00,
2013-09-01 06:14:00,73.4,71.6,30.17,South,169,0.0,-999.9,94,-99.99,,,-99.99,,2013-09-01 10:14:00,
2013-09-01 06:20:00,73.4,71.6,30.17,South,169,0.0,-999.9,94,-99.99,,,-99.99,,2013-09-01 10:20:00,
2013-09-01 06:26:00,73.4,71.6,30.18,North,0,0.0,-999.9,94,-99.99,,,-99.99,,2013-09-01 10:26:00,
2013-09-01 06:32:00,73.4,71.6,30.18,South,180,0.0,-999.9,94,-99.99,,,-99.99,,2013-09-01 10:32:00,
2013-09-01 06:38:00,73.4,71.6,30.18,South,180,0.0,-999.9,94,-99.99,,,-99.99,,2013-09-01 10:38:00,
2013-09-01 06:44:00,73.4,71.6,30.18,North,0,0.0,-999.9,94,-99.99,,,-99.99,,2013-09-01 10:44:00,
2013-09-01 06:50:00,73.4,71.6,30.18,North,0,0.0,-999.9,94,-99.99,,,-99.99,,2013-09-01 10:50:00,
2013-09-01 06:56:00,73.4,71.6,30.18,North,0,0.0,-999.9,94,-99.99,,,-99.99,,2013-09-01 10:56:00,
2013-09-01 07:02:00,73.4,71.6,30.19,SE,137,0.0,-999.9,94,-99.99,,,-99.99,,2013-09-01 11:02:00,
2013-09-01 07:08:00,73.4,71.6,30.19,SE,137,0.0,-999.9,94,-99.99,,,-99.99,,2013-09-01 11:08:00,
2013-09-01 07:14:00,73.4,71.6,30.18,SE,128,0.0,-999.9,94,-99.99,,,-99.99,,2013-09-01 11:14:00,
2013-09-01 07:20:00,73.4,71.6,30.18,SE,128,0.0,-999.9,94,-99.99,,,-99.99,,2013-09-01 11:20:00,
2013-09-01 07:26:00,73.4,71.6,30.18,South,172,0.0,-999.9,94,-99.99,,,-99.99,,2013-09-01 11:26:00,
2013-09-01 07:32:00,75.2,73.4,30.19,North,0,0.0,-999.9,94,-99.99,,,-99.99,,2013-09-01 11:32:00,
2013-09-01 07:38:00,75.2,73.4,30.19,North,0,0.0,-999.9,94,-99.99,,,-99.99,,2013-09-01 11:38:00,
2013-09-01 07:44:00,75.2,73.4,30.19,SSE,165,1.2,-999.9,94,-99.99,,,-99.99,,2013-09-01 11:44:00,
2013-09-01 07:50:00,75.2,73.4,30.19,SSE,165,1.2,-999.9,94,-99.99,,,-99.99,,2013-09-01 11:50:00,
2013-09-01 07:56:00,75.2,73.4,30.19,North,0,0.0,-999.9,94,-99.99,,,-99.99,,2013-09-01 11:56:00,
2013-09-01 08:02:00,75.2,71.6,30.18,SE,141,4.6,-999.9,89,-99.99,,,-99.99,,2013-09-01 12:02:00,
2013-09-01 08:08:00,75.2,71.6,30.18,SE,141,4.6,-999.9,89,-99.99,,,-99.99,,2013-09-01 12:08:00,
2013-09-01 08:14:00,75.2,71.6,30.19,SSE,159,2.3,-999.9,89,-99.99,,,-99.99,,2013-09-01 12:14:00,
2013-09-01 08:20:00,75.2,71.6,30.19,SSE,159,2.3,-999.9,89,-99.99,,,-99.99,,2013-09-01 12:20:00,
2013-09-01 08:26:00,75.2,71.6,30.18,North,0,0.0,-999.9,89,-99.99,,,-99.99,,2013-09-01 12:26:00,
2013-09-01 08:32:00,77.0,73.4,30.18,SSE,147,3.5,-999.9,89,-99.99,,,-99.99,,2013-09-01 12:32:00,
2013-09-01 08:38:00,77.0,73.4,30.18,SSE,147,3.5,-999.9,89,-99.99,,,-99.99,,2013-09-01 12:38:00,
2013-09-01 08:44:00,77.0,71.6,30.18,South,170,0.0,-999.9,83,-99.99,,,-99.99,,2013-09-01 12:44:00,
2013-09-01 08:50:00,77.0,71.6,30.18,South,170,0.0,-999.9,83,-99.99,,,-99.99,,2013-09-01 12:50:00,
2013-09-01 08:56:00,77.0,71.6,30.18,SSE,167,2.3,-999.9,83,-99.99,,,-99.99,,2013-09-01 12:56:00,
2013-09-01 09:02:00,77.0,71.6,30.18,SSE,157,1.2,-999.9,83,-99.99,,,-99.99,,2013-09-01 13:02:00,
2013-09-01 09:08:00,77.0,71.6,30.18,SSE,157,1.2,-999.9,83,-99.99,,,-99.99,,2013-09-01 13:08:00,
2013-09-01 09:14:00,77.0,71.6,30.18,South,169,1.2,-999.9,83,-99.99,,,-99.99,,2013-09-01 13:14:00,
2013-09-01 09:20:00,77.0,71.6,30.18,South,169,1.2,-999.9,83,-99.99,,,-99.99,,2013-09-01 13:20:00,
2013-09-01 09:26:00,77.0,71.6,30.18,SSE,147,1.2,-999.9,83,-99.99,,,-99.99,,2013-09-01 13:26:00,
2013-09-01 09:32:00,77.0,71.6,30.18,North,0,0.0,-999.9,83,-99.99,,,-99.99,,2013-09-01 13:32:00,
2013-09-01 09:38:00,77.0,71.6,30.18,North,0,0.0,-999.9,83,-99.99,,,-99.99,,2013-09-01 13:38:00,
2013-09-01 09:44:00,77.0,71.6,30.19,SE,130,1.2,-999.9,83,-99.99,,,-99.99,,2013-09-01 13:44:00,
2013-09-01 09:50:00,77.0,71.6,30.19,SE,130,1.2,-999.9,83,-99.99,,,-99.99,,2013-09-01 13:50:00,
2013-09-01 09:56:00,77.0,71.6,30.19,SSE,147,1.2,-999.9,83,-99.99,,,-99.99,,2013-09-01 13:56:00,
2013-09-01 10:02:00,77.0,73.4,30.19,SE,142,2.3,-999.9,89,-99.99,,,-99.99,,2013-09-01 14:02:00,
2013-09-01 10:08:00,77.0,73.4,30.19,SE,142,2.3,-999.9,89,-99.99,,,-99.99,,2013-09-01 14:08:00,
2013-09-01 10:14:00,75.2,71.6,30.19,North,0,0.0,-999.9,89,-99.99,,,-99.99,,2013-09-01 14:14:00,
2013-09-01 10:20:00,75.2,71.6,30.19,North,0,0.0,-999.9,89,-99.99,,,-99.99,,2013-09-01 14:20:00,
2013-09-01 10:26:00,75.2,71.6,30.20,North,0,0.0,-999.9,89,-99.99,,,-99.99,,2013-09-01 14:26:00,
2013-09-01 10:32:00,75.2,71.6,30.20,ESE,103,0.0,-999.9,89,-99.99,,,-99.99,,2013-09-01 14:32:00,
2013-09-01 10:38:00,75.2,71.6,30.20,ESE,103,0.0,-999.9,89,-99.99,,,-99.99,,2013-09-01 14:38:00,
2013-09-01 10:44:00,75.2,71.6,30.20,South,177,3.5,-999.9,89,-99.99,,,-99.99,,2013-09-01 14:44:00,
2013-09-01 10:50:00,75.2,71.6,30.20,South,177,3.5,-999.9,89,-99.99,,,-99.99,,2013-09-01 14:50:00,
2013-09-01 10:56:00,75.2,71.6,30.20,SSE,158,1.2,-999.9,89,-99.99,,,-99.99,,2013-09-01 14:56:00,
2013-09-01 11:02:00,75.2,71.6,30.19,North,0,0.0,-999.9,89,-99.99,,,-99.99,,2013-09-01 15:02:00,
2013-09-01 11:08:00,75.2,71.6,30.19,North,0,0.0,-999.9,89,-99.99,,,-99.99,,2013-09-01 15:08:00,
2013-09-01 11:14:00,75.2,71.6,30.20,North,0,0.0,-999.9,89,-99.99,,,-99.99,,2013-09-01 15:14:00,
2013-09-01 11:20:00,75.2,71.6,30.20,North,0,0.0,-999.9,89,-99.99,,,-99.99,,2013-09-01 15:20:00,
2013-09-01 11:26:00,75.2,71.6,30.20,SSW,195,0.0,-999.9,89,-99.99,,,-99.99,,2013-09-01 15:26:00,
2013-09-01 11:32:00,75.2,73.4,30.19,North,0,0.0,-999.9,94,-99.99,,,-99.99,,2013-09-01 15:32:00,
2013-09-01 11:38:00,75.2,73.4,30.19,North,0,0.0,-999.9,94,-99.99,,,-99.99,,2013-09-01 15:38:00,
2013-09-01 11:44:00,75.2,73.4,30.19,North,0,0.0,-999.9,94,-99.99,,,-99.99,,2013-09-01 15:44:00,
2013-09-01 11:50:00,75.2,73.4,30.19,North,0,0.0,-999.9,94,-99.99,,,-99.99,,2013-09-01 15:50:00,
2013-09-01 11:56:00,77.0,75.2,30.19,North,0,0.0,-999.9,94,-99.99,,,-99.99,,2013-09-01 15:56:00,
2013-09-01 12:02:00,77.0,75.2,30.18,SSE,167,1.2,-999.9,94,-99.99,,,-99.99,,2013-09-01 16:02:00,
2013-09-01 12:08:00,77.0,75.2,30.18,SSE,167,1.2,-999.9,94,-99.99,,,-99.99,,2013-09-01 16:08:00,
2013-09-01 12:14:00,77.0,75.2,30.18,SSE,166,2.3,-999.9,94,-99.99,,,-99.99,,2013-09-01 16:14:00,
2013-09-01 12:20:00,77.0,75.2,30.18,SSE,166,2.3,-999.9,94,-99.99,,,-99.99,,2013-09-01 16:20:00,
2013-09-01 12:26:00,77.0,73.4,30.17,SSE,165,6.9,-999.9,89,-99.99,,,-99.99,,2013-09-01 16:26:00,
2013-09-01 12:32:00,78.8,75.2,30.17,South,180,2.3,-999.9,89,-99.99,,,-99.99,,2013-09-01 16:32:00,
2013-09-01 12:38:00,78.8,75.2,30.17,South,180,2.3,-999.9,89,-99.99,,,-99.99,,2013-09-01 16:38:00,
2013-09-01 12:44:00,78.8,75.2,30.17,SE,135,1.2,-999.9,89,-99.99,,,-99.99,,2013-09-01 16:44:00,
2013-09-01 12:50:00,78.8,75.2,30.17,SE,135,1.2,-999.9,89,-99.99,,,-99.99,,2013-09-01 16:50:00,
2013-09-01 12:56:00,78.8,73.4,30.17,SE,146,4.6,-999.9,83,-99.99,,,-99.99,,2013-09-01 16:56:00,
2013-09-01 13:02:00,80.6,73.4,30.17,SSE,149,1.2,-999.9,79,-99.99,,,-99.99,,2013-09-01 17:02:00,
2013-09-01 13:08:00,80.6,73.4,30.17,SSE,149,1.2,-999.9,79,-99.99,,,-99.99,,2013-09-01 17:08:00,
2013-09-01 13:14:00,82.4,75.2,30.16,SSE,154,4.6,-999.9,79,-99.99,,,-99.99,,2013-09-01 17:14:00,
2013-09-01 13:20:00,82.4,75.2,30.16,SSE,154,4.6,-999.9,79,-99.99,,,-99.99,,2013-09-01 17:20:00,
2013-09-01 13:26:00,80.6,73.4,30.16,South,173,2.3,-999.9,79,-99.99,,,-99.99,,2013-09-01 17:26:00,
2013-09-01 13:32:00,80.6,73.4,30.16,South,173,1.2,-999.9,79,-99.99,,,-99.99,,2013-09-01 17:32:00,
2013-09-01 13:38:00,80.6,73.4,30.16,South,173,1.2,-999.9,79,-99.99,,,-99.99,,2013-09-01 17:38:00,
2013-09-01 13:44:00,80.6,73.4,30.16,SSE,149,3.5,-999.9,79,-99.99,,,-99.99,,2013-09-01 17:44:00,
2013-09-01 13:50:00,80.6,73.4,30.16,SSE,149,3.5,-999.9,79,-99.99,,,-99.99,,2013-09-01 17:50:00,
2013-09-01 13:56:00,82.4,73.4,30.16,SE,143,4.6,-999.9,74,-99.99,,,-99.99,,2013-09-01 17:56:00,
2013-09-01 14:02:00,82.4,73.4,30.15,SE,132,1.2,-999.9,74,-99.99,,,-99.99,,2013-09-01 18:02:00,
2013-09-01 14:08:00,82.4,73.4,30.15,SE,132,1.2,-999.9,74,-99.99,,,-99.99,,2013-09-01 18:08:00,
2013-09-01 14:14:00,82.4,73.4,30.15,SSE,153,5.8,-999.9,74,-99.99,,,-99.99,,2013-09-01 18:14:00,
2013-09-01 14:20:00,82.4,73.4,30.15,SSE,153,5.8,-999.9,74,-99.99,,,-99.99,,2013-09-01 18:20:00,
2013-09-01 14:26:00,82.4,73.4,30.15,North,0,0.0,-999.9,74,-99.99,,,-99.99,,2013-09-01 18:26:00,
2013-09-01 14:32:00,82.4,73.4,30.14,SSW,199,0.0,-999.9,74,-99.99,,,-99.99,,2013-09-01 18:32:00,
2013-09-01 14:38:00,82.4,73.4,30.14,SSW,199,0.0,-999.9,74,-99.99,,,-99.99,,2013-09-01 18:38:00,
2013-09-01 14:44:00,82.4,73.4,30.14,SSW,196,1.2,-999.9,74,-99.99,,,-99.99,,2013-09-01 18:44:00,
2013-09-01 14:50:00,82.4,73.4,30.14,SSW,196,1.2,-999.9,74,-99.99,,,-99.99,,2013-09-01 18:50:00,
2013-09-01 14:56:00,82.4,73.4,30.14,SSE,147,0.0,-999.9,74,-99.99,,,-99.99,,2013-09-01 18:56:00,
2013-09-01 15:02:00,82.4,71.6,30.14,SE,142,5.8,-999.9,70,-99.99,,,-99.99,,2013-09-01 19:02:00,
2013-09-01 15:08:00,82.4,71.6,30.14,SE,142,5.8,-999.9,70,-99.99,,,-99.99,,2013-09-01 19:08:00,
2013-09-01 15:14:00,82.4,71.6,30.14,SSE,151,6.9,-999.9,70,-99.99,,,-99.99,,2013-09-01 19:14:00,
2013-09-01 15:20:00,82.4,71.6,30.14,SSE,151,6.9,-999.9,70,-99.99,,,-99.99,,2013-09-01 19:20:00,
2013-09-01 15:26:00,82.4,71.6,30.14,SSW,196,1.2,-999.9,70,-99.99,,,-99.99,,2013-09-01 19:26:00,
2013-09-01 15:32:00,82.4,71.6,30.14,SSW,196,1.2,-999.9,70,-99.99,,,-99.99,,2013-09-01 19:32:00,
2013-09-01 15:38:00,82.4,71.6,30.14,SSW,196,1.2,-999.9,70,-99.99,,,-99.99,,2013-09-01 19:38:00,
2013-09-01 15:44:00,82.4,71.6,30.13,SE,145,3.5,-999.9,70,-99.99,,,-99.99,,2013-09-01 19:44:00,
2013-09-01 15:50:00,82.4,71.6,30.13,SE,145,3.5,-999.9,70,-99.99,,,-99.99,,2013-09-01 19:50:00,
2013-09-01 15:56:00,84.2,73.4,30.14,South,180,0.0,-999.9,70,-99.99,,,-99.99,,2013-09-01 19:56:00,
2013-09-01 16:02:00,84.2,73.4,30.14,SSE,164,1.2,-999.9,70,-99.99,,,-99.99,,2013-09-01 20:02:00,
2013-09-01 16:08:00,84.2,73.4,30.14,SSE,164,1.2,-999.9,70,-99.99,,,-99.99,,2013-09-01 20:08:00,
2013-09-01 16:14:00,84.2,73.4,30.14,SSE,149,3.5,-999.9,70,-99.99,,,-99.99,,2013-09-01 20:14:00,
2013-09-01 16:20:00,84.2,73.4,30.14,SSE,149,3.5,-999.9,70,-99.99,,,-99.99,,2013-09-01 20:20:00,
2013-09-01 16:26:00,84.2,73.4,30.13,North,0,0.0,-999.9,70,-99.99,,,-99.99,,2013-09-01 20:26:00,
2013-09-01 16:32:00,84.2,73.4,30.13,SE,131,1.2,-999.9,70,-99.99,,,-99.99,,2013-09-01 20:32:00,
2013-09-01 16:38:00,84.2,73.4,30.13,SE,131,1.2,-999.9,70,-99.99,,,-99.99,,2013-09-01 20:38:00,
2013-09-01 16:44:00,82.4,71.6,30.13,SSE,166,3.5,-999.9,70,-99.99,,,-99.99,,2013-09-01 20:44:00,
2013-09-01 16:50:00,82.4,71.6,30.13,SSE,166,3.5,-999.9,70,-99.99,,,-99.99,,2013-09-01 20:50:00,
2013-09-01 17:02:00,82.4,71.6,30.12,South,182,1.2,-999.9,70,-99.99,,,-99.99,,2013-09-01 21:02:00,
2013-09-01 17:08:00,82.4,71.6,30.12,South,182,1.2,-999.9,70,-99.99,,,-99.99,,2013-09-01 21:08:00,
2013-09-01 17:14:00,82.4,71.6,30.12,North,0,0.0,-999.9,70,-99.99,,,-99.99,,2013-09-01 21:14:00,
2013-09-01 17:20:00,82.4,71.6,30.12,North,0,0.0,-999.9,70,-99.99,,,-99.99,,2013-09-01 21:20:00,
2013-09-01 17:26:00,82.4,71.6,30.13,North,0,0.0,-999.9,70,-99.99,,,-99.99,,2013-09-01 21:26:00,
2013-09-01 17:32:00,82.4,71.6,30.13,North,0,0.0,-999.9,70,-99.99,,,-99.99,,2013-09-01 21:32:00,
2013-09-01 17:38:00,82.4,71.6,30.13,North,0,0.0,-999.9,70,-99.99,,,-99.99,,2013-09-01 21:38:00,
2013-09-01 17:44:00,82.4,71.6,30.13,SE,139,0.0,-999.9,70,-99.99,,,-99.99,,2013-09-01 21:44:00,
2013-09-01 17:50:00,82.4,71.6,30.13,SE,139,0.0,-999.9,70,-99.99,,,-99.99,,2013-09-01 21:50:00,
2013-09-01 17:56:00,82.4,71.6,30.13,North,0,0.0,-999.9,70,-99.99,,,-99.99,,2013-09-01 21:56:00,
2013-09-01 18:02:00,84.2,73.4,30.13,North,0,0.0,-999.9,70,-99.99,,,-99.99,,2013-09-01 22:02:00,
2013-09-01 18:08:00,84.2,73.4,30.13,North,0,0.0,-999.9,70,-99.99,,,-99.99,,2013-09-01 22:08:00,
2013-09-01 18:14:00,84.2,73.4,30.13,North,0,0.0,-999.9,70,-99.99,,,-99.99,,2013-09-01 22:14:00,
2013-09-01 18:20:00,84.2,73.4,30.13,North,0,0.0,-999.9,70,-99.99,,,-99.99,,2013-09-01 22:20:00,
2013-09-01 18:26:00,82.4,73.4,30.13,SE,129,3.5,-999.9,74,-99.99,,,-99.99,,2013-09-01 22:26:00,
2013-09-01 18:32:00,82.4,73.4,30.13,South,183,0.0,-999.9,74,-99.99,,,-99.99,,2013-09-01 22:32:00,
2013-09-01 18:38:00,82.4,73.4,30.13,South,183,0.0,-999.9,74,-99.99,,,-99.99,,2013-09-01 22:38:00,
2013-09-01 18:44:00,80.6,73.4,30.13,SE,145,3.5,-999.9,79,-99.99,,,-99.99,,2013-09-01 22:44:00,
2013-09-01 18:50:00,80.6,73.4,30.13,SE,145,3.5,-999.9,79,-99.99,,,-99.99,,2013-09-01 22:50:00,
2013-09-01 18:56:00,80.6,73.4,30.14,SSE,151,0.0,-999.9,79,-99.99,,,-99.99,,2013-09-01 22:56:00,
2013-09-01 19:02:00,80.6,73.4,30.14,North,0,0.0,-999.9,79,-99.99,,,-99.99,,2013-09-01 23:02:00,
2013-09-01 19:08:00,80.6,73.4,30.14,North,0,0.0,-999.9,79,-99.99,,,-99.99,,2013-09-01 23:08:00,
2013-09-01 19:14:00,78.8,71.6,30.14,South,186,4.6,-999.9,78,-99.99,,,-99.99,,2013-09-01 23:14:00,
2013-09-01 19:20:00,78.8,71.6,30.14,South,186,4.6,-999.9,78,-99.99,,,-99.99,,2013-09-01 23:20:00,
2013-09-01 19:26:00,78.8,71.6,30.14,SSE,164,3.5,-999.9,78,-99.99,,,-99.99,,2013-09-01 23:26:00,
2013-09-01 19:32:00,78.8,71.6,30.14,North,0,0.0,-999.9,78,-99.99,,,-99.99,,2013-09-01 23:32:00,
2013-09-01 19:38:00,78.8,71.6,30.14,North,0,0.0,-999.9,78,-99.99,,,-99.99,,2013-09-01 23:38:00,
2013-09-01 19:44:00,78.8,71.6,30.14,North,0,0.0,-999.9,78,-99.99,,,-99.99,,2013-09-01 23:44:00,
2013-09-01 19:50:00,78.8,71.6,30.14,North,0,0.0,-999.9,78,-99.99,,,-99.99,,2013-09-01 23:50:00,
2013-09-01 19:56:00,78.8,71.6,30.15,North,0,0.0,-999.9,78,-99.99,,,-99.99,,2013-09-01 23:56:00,
2013-09-01 20:02:00,78.8,71.6,30.14,North,0,0.0,-999.9,78,-99.99,,,-99.99,,2013-09-02 00:02:00,
2013-09-01 20:08:00,78.8,71.6,30.14,North,0,0.0,-999.9,78,-99.99,,,-99.99,,2013-09-02 00:08:00,
2013-09-01 21:02:00,75.2,73.4,30.16,North,0,0.0,-999.9,94,-99.99,,,-99.99,,2013-09-02 01:02:00,
2013-09-01 21:08:00,75.2,73.4,30.16,North,0,0.0,-999.9,94,-99.99,,,-99.99,,2013-09-02 01:08:00,
2013-09-01 21:14:00,75.2,73.4,30.17,North,0,0.0,-999.9,94,-99.99,,,-99.99,,2013-09-02 01:14:00,
2013-09-01 21:20:00,75.2,73.4,30.17,North,0,0.0,-999.9,94,-99.99,,,-99.99,,2013-09-02 01:20:00,
2013-09-01 21:26:00,75.2,73.4,30.17,North,0,0.0,-999.9,94,-99.99,,,-99.99,,2013-09-02 01:26:00,
2013-09-01 21:32:00,75.2,73.4,30.17,North,0,0.0,-999.9,94,-99.99,,,-99.99,,2013-09-02 01:32:00,
2013-09-01 21:38:00,75.2,73.4,30.17,North,0,0.0,-999.9,94,-99.99,,,-99.99,,2013-09-02 01:38:00,
2013-09-01 21:44:00,75.2,73.4,30.17,North,0,0.0,-999.9,94,-99.99,,,-99.99,,2013-09-02 01:44:00,
2013-09-01 21:50:00,75.2,73.4,30.17,North,0,0.0,-999.9,94,-99.99,,,-99.99,,2013-09-02 01:50:00,
2013-09-01 21:56:00,75.2,73.4,30.18,North,0,0.0,-999.9,94,-99.99,,,-99.99,,2013-09-02 01:56:00,
2013-09-01 22:02:00,75.2,73.4,30.18,North,0,0.0,-999.9,94,-99.99,,,-99.99,,2013-09-02 02:02:00,
2013-09-01 22:08:00,75.2,73.4,30.18,North,0,0.0,-999.9,94,-99.99,,,-99.99,,2013-09-02 02:08:00,
2013-09-01 22:14:00,75.2,73.4,30.17,North,0,0.0,-999.9,94,-99.99,,,-99.99,,2013-09-02 02:14:00,
2013-09-01 22:20:00,75.2,73.4,30.17,North,0,0.0,-999.9,94,-99.99,,,-99.99,,2013-09-02 02:20:00,
2013-09-01 22:26:00,75.2,73.4,30.16,North,0,0.0,-999.9,94,-99.99,,,-99.99,,2013-09-02 02:26:00,
2013-09-01 22:32:00,75.2,73.4,30.17,North,0,0.0,-999.9,94,-99.99,,,-99.99,,2013-09-02 02:32:00,
2013-09-01 22:38:00,75.2,73.4,30.17,North,0,0.0,-999.9,94,-99.99,,,-99.99,,2013-09-02 02:38:00,
2013-09-01 22:44:00,75.2,73.4,30.17,North,0,0.0,-999.9,94,-99.99,,,-99.99,,2013-09-02 02:44:00,
2013-09-01 22:50:00,75.2,73.4,30.17,North,0,0.0,-999.9,94,-99.99,,,-99.99,,2013-09-02 02:50:00,
2013-09-01 22:56:00,75.2,73.4,30.17,North,0,0.0,-999.9,94,-99.99,,,-99.99,,2013-09-02 02:56:00,
2013-09-01 23:02:00,75.2,73.4,30.17,North,0,0.0,-999.9,94,-99.99,,,-99.99,,2013-09-02 03:02:00,
2013-09-01 23:08:00,75.2,73.4,30.17,North,0,0.0,-999.9,94,-99.99,,,-99.99,,2013-09-02 03:08:00,
2013-09-01 23:14:00,75.2,73.4,30.17,North,0,0.0,-999.9,94,-99.99,,,-99.99,,2013-09-02 03:14:00,
2013-09-01 23:20:00,75.2,73.4,30.17,North,0,0.0,-999.9,94,-99.99,,,-99.99,,2013-09-02 03:20:00,
2013-09-01 23:26:00,75.2,73.4,30.17,North,0,0.0,-999.9,94,-99.99,,,-99.99,,2013-09-02 03:26:00,
2013-09-01 23:32:00,75.2,73.4,30.16,North,0,0.0,-999.9,94,-99.99,,,-99.99,,2013-09-02 03:32:00,
2013-09-01 23:38:00,75.2,73.4,30.16,North,0,0.0,-999.9,94,-99.99,,,-99.99,,2013-09-02 03:38:00,
2013-09-01 23:44:00,75.2,73.4,30.15,North,0,0.0,-999.9,94,-99.99,,,-99.99,,2013-09-02 03:44:00,
2013-09-01 23:50:00,75.2,73.4,30.15,North,0,0.0,-999.9,94,-99.99,,,-99.99,,2013-09-02 03:50:00,
2013-09-01 23:56:00,75.2,73.4,30.15,North,0,0.0,-999.9,94,-99.99,,,-99.99,,2013-09-02 03:56:00,